This demonstration page uses our WeatherBlox Daily Observations layout. Learn more.

Left ArrowRight Arrow

39.12711, -84.51439

Hourly Observations for December 8, 2022

Temp ( °F °C ) Dew Point ( °F °C ) Humidity (%) Winds ( mph kmh ) Pressure ( in mb ) Visibility ( mi km ) Precip ( " mm )
12:53 am 00:53 Cloudy with Haze 48 8.9 43 6.1 83 83 Calm 30.36 1028 6 10 0.00 0.00
1:53 am 01:53 Cloudy with Mist and Fog 46 7.8 42 5.6 86 86 NNE 3 6 30.35 1028 6 10 0.00 0.00
2:53 am 02:53 Cloudy 46 7.8 42 5.6 86 86 ENE 6 9 30.35 1028 7 11 0.00 0.00
3:53 am 03:53 Cloudy with Mist and Fog 44 6.7 42 5.6 93 93 Calm 30.35 1028 6 10 0.00 0.00
4:33 am 04:33 Partly Cloudy with Mist and Fog 42 5.6 41 5 96 96 NNE 5 7 30.35 1028 5 8 0.00 0.00
4:53 am 04:53 Clear with Mist and Fog 45 7.2 42 5.6 90 90 NNE 3 6 30.33 1027 6 10 0.00 0.00
5:53 am 05:53 Mostly Clear with Mist and Fog 43 6.1 41 5 93 93 Calm 30.33 1027 4 6 0.00 0.00
6:14 am 06:14 Mostly Cloudy with Mist and Fog 44 6.7 42 5.6 93 93 Calm 30.33 1027 5 8 0.00 0.00
6:53 am 06:53 Cloudy with Mist and Fog 43 6.1 41 5 93 93 ESE 3 6 30.34 1028 5 8 0.00 0.00
7:53 am 07:53 Cloudy with Mist and Fog 45 7.2 42 5.6 90 90 Calm 30.37 1028 5 8 0.00 0.00
8:53 am 08:53 Cloudy with Mist and Fog 45 7.2 42 5.6 90 90 NE 6 9 30.35 1028 4 6 0.00 0.00
9:53 am 09:53 Cloudy with Light Rain 45 7.2 42 5.6 90 90 ENE 7 11 30.33 1027 4 6 0.01 0.13
10:53 am 10:53 Cloudy with Light Rain 46 7.8 43 6.1 89 89 NE 7 11 30.32 1027 3 5 0.01 0.25
11:53 am 11:53 Cloudy with Light Rain 46 7.8 44 6.7 93 93 NNE 8 13 30.26 1025 3 5 0.01 0.13
12:53 pm 12:53 Cloudy with Light Rain 47 8.3 44 6.7 90 90 NNE 8 13 30.27 1025 3 5 0.02 0.51
1:16 pm 13:16 Cloudy with Light Rain 47 8.3 44 6.7 90 90 NE 5 7 30.25 1024 3 5 0.01 0.13
1:53 pm 13:53 Cloudy with Light Rain 47 8.3 44 6.7 90 90 ENE 6 9 30.23 1024 4 6 0.01 0.25
2:53 pm 14:53 Cloudy with Light Rain 46 7.8 44 6.7 93 93 NNE 3 6 30.25 1025 4 6 0.01 0.13
3:53 pm 15:53 Cloudy with Light Rain 46 7.8 43 6.1 89 89 NE 5 7 30.24 1024 4 6 0.01 0.13
4:53 pm 16:53 Cloudy with Mist and Fog 46 7.8 43 6.1 89 89 NE 8 13 30.25 1025 4 6 0.01 0.13
5:53 pm 17:53 Cloudy with Mist and Fog 46 7.8 42 5.6 86 86 NE 7 11 30.28 1025 5 8 0.00 0.00
6:53 pm 18:53 Cloudy with Mist and Fog 46 7.8 43 6.1 89 89 NE 7 11 30.27 1025 5 8 0.00 0.00
7:53 pm 19:53 Cloudy with Mist and Fog 46 7.8 42 5.6 86 86 NE 8 13 30.28 1025 5 8 0.00 0.00
8:53 pm 20:53 Cloudy with Mist and Fog 46 7.8 42 5.6 86 86 NE 7 11 30.27 1025 4 6 0.00 0.00
9:41 pm 21:41 Cloudy with Mist and Fog 45 7.2 42 5.6 90 90 NE 5 7 30.28 1025 4 6 0.00 0.00
9:53 pm 21:53 Cloudy with Mist and Fog 46 7.8 42 5.6 86 86 NNE 5 7 30.28 1025 4 6 0.00 0.00
10:18 pm 22:18 Cloudy with Mist and Fog 45 7.2 42 5.6 90 90 NNE 3 6 30.28 1025 3 5 0.00 0.00
10:53 pm 22:53 Cloudy with Mist and Fog 45 7.2 42 5.6 90 90 NE 5 7 30.27 1025 3 5 0.00 0.00
11:53 pm 23:53 Cloudy with Mist and Fog 45 7.2 42 5.6 90 90 NE 5 7 30.26 1025 3 5 0.00 0.00

Powered by AerisWeather